Location: Little Suamico
(44.7175°N, 88.0093°W)
Time: 20:23:52
(UTC+00:00)

X-37B - Pass Details

Date: 26 April 2021
Orbit: 386 x 389 km, 45.0° (Epoch: 08 May)

Event Time Altitude Azimuth Distance (km) Brightness Sun altitude
Exits shadow 09:40:15 17° 268° (W) 1,079 2.3 -11.8°
Maximum altitude 09:42:24 42° 202° (SSW) 563 1.0 -11.4°
Drops below altitude 10° 09:45:25 10° 130° (SE) 1,409 3.7 -11.0°
Sets 09:47:32 0° 123° (ESE) 2,260 4.8 -10.7°
